Regional Weather Roundup
Issued by NWS Sioux Falls, SD

Home | Current Version | Previous Version | Text Only | Print | Product List | Glossary Off
Versions: 1 2 3 4 5 6 7 8 9 10 11 12 13 14 15 16 17 18 19 20 21 22 23 24 25 26 27 28 29 30 31 32 33 34 35 36 37 38 39 40 41 42 43 44 45 46 47 48 49 50

000
ASUS43 KFSD 070510
RWRFSD

WEATHER ROUNDUP FOR SE SOUTH DAKOTA/SW MINNESOTA/NW IOWA
NATIONAL WEATHER SERVICE SIOUX FALLS SD
1200 AM CDT TUE JUL 07 2015

NOTE: "FAIR" INDICATES FEW OR NO CLOUDS BELOW 12,000 FEET WITH NO
SIGNIFICANT WEATHER AND OR OBSTRUCTIONS TO VISIBILITY.


SDZ038>040-050-052>070-070600-
SOUTHEAST SOUTH DAKOTA

CITY           SKY/WX    TMP DP  RH WIND       PRES   REMARKS
BROOKINGS      CLEAR     54  48  82 NW5       30.16S
CHAMBERLAIN    CLOUDY    62  57  84 CALM      30.17R
HURON          PTCLDY    60  55  83 NE8       30.14S HAZE
MADISON        FAIR      55  55 100 N8        30.15S
MITCHELL       CLEAR     60  58  92 N3        30.14F FOG
SIOUX FALLS    CLEAR     58  53  84 N6        30.13R
WINNER         FAIR      64  55  72 S5        30.18R
YANKTON        CLEAR     59  54  82 N5        30.13R
$$

MNZ071-072-080-081-089-090-097-098-070600-
SOUTHWEST MINNESOTA

CITY           SKY/WX    TMP DP  RH WIND       PRES   REMARKS
FAIRMONT       CLEAR     57  46  67 N8        30.07R
JACKSON        CLEAR     55  50  82 N6        30.10R
LUVERNE        CLEAR     59  52  77 N6        30.12S
MARSHALL       CLEAR     55  46  71 N8        30.11S
PIPESTONE      CLEAR     55  52  88 N5        30.13S
REDWOOD FALLS  CLEAR     56  48  74 N7        30.10R
TRACY          CLEAR     56  51  82 N10       30.12R
WINDOM         CLEAR     54  48  82 N7        30.10S
WORTHINGTON    CLEAR     54  46  76 N7        30.11S
$$

IAZ001>003-012>014-020>022-031-032-NEZ013-014-SDZ071-070600-
NORTHWEST IOWA

CITY           SKY/WX    TMP DP  RH WIND       PRES   REMARKS
CHEROKEE       CLEAR     58  54  84 N7        30.10R
DENISON        PTCLDY    63  55  77 N12       30.06R
ESTHERVILLE    CLEAR     54  49  83 N8        30.08R
LE MARS        CLEAR     57  54  88 N3        30.13R
ORANGE CITY    CLEAR     57  52  82 N5        30.12R
SHELDON        PTCLDY    55  55 100 N7        30.10R
SIOUX CITY     CLEAR     63  53  70 N6        30.12R
SPENCER        CLEAR     57  49  74 N6        30.10R
STORM LAKE     CLEAR     59  52  77 N12       30.09S
$$

ABBREVIATIONS USED IN REMARKS
   TC - TEMPERATURE IN CELSIUS
  WCI - WIND CHILL INDEX
   HX - HEAT INDEX
  VSB - VISIBILITY




USA.gov is the U.S. government's official web portal to all federal, state and local government web resources and services.